Location: Argonnex
(45.9500°N, 6.1333°E)
Time: 17:35:09
(UTC+00:00)

Cosmos 724 - Pass Details

Date: 28 January 2023
Orbit: 848 x 946 km, 65.6° (Epoch: 29 March)

Event Time Altitude Azimuth Distance (km) Brightness Sun altitude
Rises 18:07:46 0° 201° (SSW) 3,442 7.8 -16.2°
Reaches altitude 10° 18:10:14 10° 198° (SSW) 2,522 7.0 -16.6°
Maximum altitude 18:15:59 61° 119° (ESE) 1,005 4.3 -17.6°
Enters shadow 18:19:44 23° 46° (NE) 1,826 5.5 -18.3°
